This is the latest recevied weather packets stored in our database for station/object IK2ILW-4. If no packets are shown the sender has not sent any weather packets the latest 10 day(s).
| Time | Temp. | Humidity | Pressure | Rain* | Wind** | Luminosity | Snow |
|---|---|---|---|---|---|---|---|
| 1778080660 | 7.22° C | 97% | 1009.4 hPa | 16 mm | - | 11 W/m² | - |
| 1778080357 | 7.22° C | 97% | 1009.6 hPa | 16 mm | - | 21 W/m² | - |
| 1778080057 | 7.22° C | 97% | 1009.6 hPa | 15.49 mm | - | 23 W/m² | - |
| 1778079756 | 7.22° C | 97% | 1009.6 hPa | 15.49 mm | - | 53 W/m² | - |
| 1778079473 | 7.22° C | 97% | 1009.7 hPa | 15.49 mm | - | 53 W/m² | - |
| 1778079168 | 7.78° C | 96% | 1009.7 hPa | 15.49 mm | - | 109 W/m² | - |
| 1778078865 | 7.78° C | 96% | 1009.7 hPa | 15.49 mm | - | 118 W/m² | - |
| 1778078564 | 7.78° C | 96% | 1009.8 hPa | 15.49 mm | - | 141 W/m² | - |
| 1778078261 | 7.78° C | 96% | 1009.8 hPa | 15.49 mm | - | 207 W/m² | - |
| 1778077956 | 7.78° C | 96% | 1009.8 hPa | 15.49 mm | - | 357 W/m² | - |
| 1778077651 | 7.78° C | 96% | 1009.9 hPa | 15.49 mm | - | 854 W/m² | - |
| 1778077368 | 7.78° C | 94% | 1009.9 hPa | 15.49 mm | - | 241 W/m² | - |
| 1778077064 | 7.78° C | 93% | 1009.9 hPa | 15.49 mm | - | 179 W/m² | - |
| 1778076764 | 8.33° C | 92% | 1010.4 hPa | 15.49 mm | - | 232 W/m² | - |
| 1778076460 | 7.78° C | 92% | 1010.4 hPa | 15.49 mm | - | 932 W/m² | - |
| 1778076156 | 7.78° C | 92% | 1010.4 hPa | 15.49 mm | - | 176 W/m² | - |
| 1778075855 | 7.78° C | 93% | 1010.4 hPa | 15.24 mm | - | 105 W/m² | - |
| 1778075554 | 7.78° C | 93% | 1010.4 hPa | 15.24 mm | - | 169 W/m² | - |
| 1778075251 | 7.78° C | 92% | 1010.4 hPa | 15.24 mm | - | 288 W/m² | - |
| 1778074970 | 7.78° C | 93% | 1010.7 hPa | 15.24 mm | - | 420 W/m² | - |
| 1778074666 | 7.78° C | 92% | 1010.7 hPa | 15.24 mm | - | 257 W/m² | - |
| 1778074362 | 7.78° C | 92% | 1010.7 hPa | 15.24 mm | - | 209 W/m² | - |
| 1778074060 | 7.78° C | 92% | 1010.7 hPa | 15.24 mm | - | 188 W/m² | - |
| 1778073759 | 7.78° C | 93% | 1010.7 hPa | 15.24 mm | - | 214 W/m² | - |
| 1778073455 | 7.78° C | 96% | 1010.7 hPa | 15.24 mm | - | 891 W/m² | - |
* Rain since midnight (hover to see other rain measurements)
** Current wind speed in m/s (hover to see current wind gust speed)